Chrysopouli, Greece

10:17 PM EEST on April 25, 2017 (GMT +0300)
Megas Alexandros

Weather History for LGKV - March, 2013

Change the Weather History Date:

Sunday, March 31, 2013

  Actual Average Record
Temperature  
Mean Temperature 60 °F -  
Max Temperature 64 °F 55 °F 67 °F (2017)
Min Temperature 55 °F 41 °F 37 °F (1998)
Degree Days  
Heating Degree Days 6    
Growing Degree Days 10 (Base 50)    
Moisture  
Dew Point 55 °F    
Average Humidity 86    
Maximum Humidity 94    
Minimum Humidity 77    
Precipitation  
Precipitation 0.00 in - - ()
Sea Level Pressure  
Sea Level Pressure 29.74 in    
Wind  
Wind Speed 8 mph ()    
Max Wind Speed 12 mph    
Max Gust Speed -    
Visibility 6.2 miles    
Events Rain    
Averages and records for this station are not official NWS values.
T = Trace of Precipitation, MM = Missing Value Source: Averaged Metar Reports

Daily Weather History Graph

Daily Weather History Graph

Search for Another Location

Airport or City:

Trip Planner

Search our weather history database for the weather conditions in past years. The results will help you decide how hot, cold, wet, or windy it might be!

Date:

Astronomy

Mar. 31, 2013 Rise Set
Actual Time 7:06 AM EEST 7:45 PM EEST
Civil Twilight 6:39 AM EEST 8:13 PM EEST
Nautical Twilight 6:06 AM EEST 8:45 PM EEST
Astronomical Twilight 5:32 AM EEST 9:19 PM EEST
Moon No Moon Rise 9:35 AM EEST (3/31)
Length of Visible Light 13h 34m
Length of Day
12h 38m
Waning Gibbous, 80% of the Moon is Illuminated
Mar 31
Waning Gibbous
Apr 3
Last Quarter
Apr 10
New
Apr 18
First Quarter
Apr 25
Full

Hourly Weather History & Observations

Time (EEST) Temp. Dew Point Humidity Pressure Visibility Wind Dir Wind Speed Gust Speed Precip Events Conditions
12:50 AM 55.4 °F 53.6 °F 94% 29.83 in 6.2 mi NNE 6.9 mph - N/A   Mostly Cloudy
1:50 AM 55.4 °F 51.8 °F 88% 29.80 in 6.2 mi NE 8.1 mph - N/A   Scattered Clouds
2:50 AM 55.4 °F 51.8 °F 88% 29.77 in 6.2 mi NNE 8.1 mph - N/A   Scattered Clouds
4:50 AM 55.4 °F 51.8 °F 88% 29.77 in 6.2 mi NNE 10.4 mph - N/A   Scattered Clouds
5:50 AM 55.4 °F 53.6 °F 94% 29.77 in 6.2 mi NNE 9.2 mph - N/A   Mostly Cloudy
6:20 AM 55.4 °F 53.6 °F 94% 29.77 in 6.2 mi NE 9.2 mph - N/A   Mostly Cloudy
6:50 AM 55.4 °F 53.6 °F 94% 29.77 in 6.2 mi NE 10.4 mph - N/A   Mostly Cloudy
7:20 AM 55.4 °F 53.6 °F 94% 29.77 in 6.2 mi NE 10.4 mph - N/A   Mostly Cloudy
7:50 AM 57.2 °F 55.4 °F 94% 29.77 in 6.2 mi NNE 10.4 mph - N/A   Mostly Cloudy
8:20 AM 57.2 °F 55.4 °F 94% 29.77 in 6.2 mi NNE 10.4 mph - N/A   Mostly Cloudy
8:50 AM 57.2 °F 53.6 °F 88% 29.77 in 6.2 mi NNE 11.5 mph - N/A   Mostly Cloudy
9:20 AM 57.2 °F 53.6 °F 88% 29.77 in 6.2 mi NNE 11.5 mph - N/A   Mostly Cloudy
9:50 AM 59.0 °F 53.6 °F 82% 29.77 in 6.2 mi NE 11.5 mph - N/A   Mostly Cloudy
10:20 AM 59.0 °F 53.6 °F 82% 29.77 in 6.2 mi NE 11.5 mph - N/A   Mostly Cloudy
10:50 AM 59.0 °F 53.6 °F 82% 29.77 in 6.2 mi NE 11.5 mph - N/A   Mostly Cloudy
11:20 AM 59.0 °F 53.6 °F 82% 29.77 in 6.2 mi NE 11.5 mph - N/A   Mostly Cloudy
11:50 AM 59.0 °F 53.6 °F 82% 29.74 in 6.2 mi NE 11.5 mph - N/A   Mostly Cloudy
12:20 PM 59.0 °F 53.6 °F 82% 29.77 in 6.2 mi NE 11.5 mph - N/A   Mostly Cloudy
12:50 PM 62.6 °F 55.4 °F 77% 29.74 in 6.2 mi ENE 10.4 mph - N/A   Mostly Cloudy
1:20 PM 62.6 °F 55.4 °F 77% 29.74 in 6.2 mi NE 9.2 mph - N/A   Mostly Cloudy
1:50 PM 62.6 °F 55.4 °F 77% 29.74 in 6.2 mi ENE 6.9 mph - N/A   Mostly Cloudy
2:20 PM 62.6 °F 55.4 °F 77% 29.74 in 6.2 mi ENE 6.9 mph - N/A   Mostly Cloudy
2:50 PM 62.6 °F 55.4 °F 77% 29.74 in 6.2 mi NE 10.4 mph - N/A   Mostly Cloudy
3:20 PM 62.6 °F 55.4 °F 77% 29.71 in 6.2 mi NE 10.4 mph - N/A   Mostly Cloudy
3:50 PM 64.4 °F 57.2 °F 77% 29.74 in 6.2 mi NNE 5.8 mph - N/A   Mostly Cloudy
4:20 PM 64.4 °F 57.2 °F 77% 29.74 in 6.2 mi NE 6.9 mph - N/A   Mostly Cloudy
4:50 PM 64.4 °F 57.2 °F 77% 29.74 in 6.2 mi ENE 6.9 mph - N/A   Mostly Cloudy
5:20 PM 62.6 °F 57.2 °F 82% 29.71 in 6.2 mi NE 9.2 mph - N/A   Mostly Cloudy
5:50 PM 62.6 °F 55.4 °F 77% 29.71 in 6.2 mi Calm Calm - N/A   Mostly Cloudy
6:20 PM 62.6 °F 55.4 °F 77% 29.71 in 6.2 mi Calm Calm - N/A   Mostly Cloudy
6:50 PM 62.6 °F 57.2 °F 82% 29.74 in 6.2 mi Calm Calm - N/A   Overcast
7:20 PM 60.8 °F 57.2 °F 88% 29.71 in 6.2 mi East 9.2 mph - N/A Rain Light Rain
7:50 PM 59.0 °F 55.4 °F 88% 29.68 in 6.2 mi NNE 6.9 mph - N/A   Mostly Cloudy
8:20 PM 59.0 °F 55.4 °F 88% 29.71 in 6.2 mi ENE 5.8 mph - N/A   Mostly Cloudy
8:50 PM 59.0 °F 57.2 °F 94% 29.68 in 6.2 mi NE 4.6 mph - N/A   Mostly Cloudy
9:20 PM 57.2 °F 55.4 °F 94% 29.71 in 6.2 mi NE 4.6 mph - N/A   Mostly Cloudy
9:50 PM 57.2 °F 55.4 °F 94% 29.71 in 6.2 mi NE 5.8 mph - N/A   Mostly Cloudy
10:20 PM 57.2 °F 55.4 °F 94% 29.71 in 6.2 mi NE 5.8 mph - N/A   Mostly Cloudy
10:50 PM 57.2 °F 55.4 °F 94% 29.71 in 6.2 mi NNE 5.8 mph - N/A   Mostly Cloudy
11:20 PM 57.2 °F 55.4 °F 94% 29.71 in 6.2 mi NNE 4.6 mph - N/A   Mostly Cloudy
11:50 PM 55.4 °F 53.6 °F 94% 29.71 in 6.2 mi Calm Calm - N/A   Mostly Cloudy
12:50 AM 55.4 °F 53.6 °F 94% 29.71 in 6.2 mi Calm Calm - N/A   Mostly Cloudy